DAH2054 DAAG-EGLL

Flight info

Callsign DAH2054
Flight time N/A
Altitude 38000
Route SADAF1B SADAF N856 EPAMA DCT MARTA DCT EBROX DCT UMURE DCT XIKEN DCT KARES DCT ARBEK DCT REBUL DCT USKAR DCT MOPAS DCT GIROM DCT AGN DCT SECHE DCT UVELI DCT CNA DCT MANAK UY110 UPALO/N0450F340 UY110 REVTU UP87 ROXOG
Aircraft B38M/M-SDE1FGHILORVWXY/HB1

Departure

Time 2026-04-27 13:10
Airport Houari Boumediene Airport (DAAG)

Arrival

Time N/A
Airport London Heathrow Airport (EGLL)
Time Latitude Longitude Altitude Speed Heading
2026-04-27 12:50 36.69574 3.20116 74 ft 0 kts 84°
2026-04-27 12:57 36.69572 3.20103 70 ft 0 kts 45°
2026-04-27 13:01 36.69572 3.20104 74 ft 0 kts 51°
2026-04-27 13:01 36.69572 3.20107 70 ft 0 kts 73°
2026-04-27 13:01 36.69568 3.20114 70 ft 1 kts 118°
2026-04-27 13:01 36.69551 3.20120 74 ft 4 kts 180°
2026-04-27 13:02 36.69511 3.20108 68 ft 7 kts 194°
2026-04-27 13:02 36.69459 3.20079 70 ft 8 kts 233°
2026-04-27 13:02 36.69454 3.20008 74 ft 9 kts 271°
2026-04-27 13:02 36.69441 3.19938 69 ft 8 kts 244°
2026-04-27 13:03 36.69398 3.19895 70 ft 8 kts 203°
2026-04-27 13:03 36.69343 3.19866 73 ft 9 kts 203°
2026-04-27 13:03 36.69308 3.19808 66 ft 9 kts 262°
2026-04-27 13:03 36.69310 3.19729 73 ft 10 kts 272°
2026-04-27 13:04 36.69313 3.19641 71 ft 11 kts 272°
2026-04-27 13:04 36.69316 3.19546 66 ft 11 kts 271°
2026-04-27 13:04 36.69318 3.19444 65 ft 12 kts 271°
2026-04-27 13:04 36.69320 3.19337 64 ft 13 kts 271°
2026-04-27 13:05 36.69322 3.19226 65 ft 13 kts 271°
2026-04-27 13:05 36.69326 3.19110 72 ft 14 kts 272°
2026-04-27 13:05 36.69330 3.18989 71 ft 14 kts 272°
2026-04-27 13:05 36.69333 3.18863 64 ft 15 kts 271°
2026-04-27 13:06 36.69335 3.18734 68 ft 15 kts 271°
2026-04-27 13:06 36.69337 3.18600 70 ft 16 kts 271°
2026-04-27 13:06 36.69339 3.18460 70 ft 16 kts 271°
2026-04-27 13:06 36.69343 3.18316 69 ft 17 kts 272°
2026-04-27 13:07 36.69347 3.18169 69 ft 17 kts 272°
2026-04-27 13:07 36.69351 3.18019 64 ft 18 kts 271°
2026-04-27 13:07 36.69354 3.17861 68 ft 18 kts 271°
2026-04-27 13:07 36.69358 3.17703 62 ft 18 kts 272°
2026-04-27 13:08 36.69362 3.17545 60 ft 19 kts 272°
2026-04-27 13:08 36.69367 3.17381 67 ft 19 kts 272°
2026-04-27 13:08 36.69372 3.17217 67 ft 19 kts 272°
2026-04-27 13:08 36.69328 3.17105 60 ft 13 kts 202°
2026-04-27 13:09 36.69243 3.17100 59 ft 12 kts 167°
2026-04-27 13:09 36.69203 3.17172 62 ft 10 kts 93°
2026-04-27 13:09 36.69201 3.17304 68 ft 31 kts 91°
2026-04-27 13:09 36.69189 3.17802 66 ft 83 kts 91°
2026-04-27 13:10 36.69167 3.18691 72 ft 123 kts 91°
2026-04-27 13:10 36.69134 3.19903 110 ft 153 kts 89°
2026-04-27 13:10 36.69078 3.21275 484 ft 163 kts 89°
2026-04-27 13:10 36.69054 3.22688 1003 ft 166 kts 88°
2026-04-27 13:11 36.69011 3.24178 1458 ft 175 kts 89°
2026-04-27 13:11 36.69140 3.25683 1845 ft 182 kts 59°
2026-04-27 13:11 36.70086 3.26725 2098 ft 191 kts 18°
2026-04-27 13:11 36.71409 3.26783 2292 ft 209 kts 340°
2026-04-27 13:12 36.72710 3.25872 2729 ft 224 kts 326°
2026-04-27 13:12 36.74060 3.24741 3127 ft 242 kts 326°
2026-04-27 13:12 36.75511 3.23523 3563 ft 260 kts 326°
2026-04-27 13:12 36.77009 3.22185 4232 ft 269 kts 324°
2026-04-27 13:13 36.78545 3.20805 4955 ft 274 kts 326°
2026-04-27 13:13 36.80114 3.19477 5666 ft 278 kts 326°
2026-04-27 13:13 36.81728 3.18128 6418 ft 281 kts 326°
2026-04-27 13:13 36.83354 3.16748 7151 ft 283 kts 325°
2026-04-27 13:14 36.84988 3.15350 7877 ft 286 kts 325°
2026-04-27 13:14 36.86639 3.13942 8577 ft 289 kts 324°
2026-04-27 13:14 36.88304 3.12526 9296 ft 291 kts 324°
2026-04-27 13:14 36.89988 3.11092 10006 ft 294 kts 323°
2026-04-27 13:15 36.91691 3.09637 10540 ft 301 kts 323°
2026-04-27 13:15 36.93450 3.08136 10946 ft 313 kts 324°
2026-04-27 13:15 36.95336 3.06654 11288 ft 329 kts 332°
2026-04-27 13:15 36.97494 3.05559 11729 ft 340 kts 339°
2026-04-27 13:16 36.99757 3.04587 12250 ft 347 kts 339°
2026-04-27 13:16 37.00494 3.04251 12444 ft 349 kts 338°
2026-04-27 13:16 37.06618 3.01102 14009 ft 361 kts 338°
2026-04-27 13:17 37.08969 2.99947 14587 ft 364 kts 338°
2026-04-27 13:17 37.11337 2.98776 15170 ft 367 kts 336°
2026-04-27 13:17 37.13720 2.97572 15746 ft 370 kts 336°
2026-04-27 13:17 37.16118 2.96358 16327 ft 372 kts 335°
2026-04-27 13:18 37.18505 2.95160 16896 ft 375 kts 337°
2026-04-27 13:18 37.20931 2.93944 17463 ft 377 kts 337°
2026-04-27 13:18 37.23378 2.92712 18057 ft 379 kts 336°
2026-04-27 13:18 37.25831 2.91473 18585 ft 381 kts 337°
2026-04-27 13:19 37.28297 2.90231 19073 ft 383 kts 336°
2026-04-27 13:19 37.30777 2.88980 19556 ft 386 kts 336°
2026-04-27 13:19 37.33273 2.87721 20036 ft 388 kts 336°
2026-04-27 13:19 37.35789 2.86448 20517 ft 390 kts 336°
2026-04-27 13:20 37.38316 2.85169 20985 ft 392 kts 336°
2026-04-27 13:20 37.40859 2.83885 21438 ft 395 kts 336°
2026-04-27 13:20 37.43416 2.82592 21901 ft 397 kts 336°
2026-04-27 13:20 37.45987 2.81288 22356 ft 399 kts 336°
2026-04-27 13:21 37.48578 2.79973 22807 ft 402 kts 335°
2026-04-27 13:21 37.51145 2.78672 23247 ft 404 kts 336°
2026-04-27 13:21 37.52028 2.78224 23392 ft 405 kts 336°